SR 1 @ Trap Shooters Rd, Magnolia DE USA current weather conditions

sailwx.info

Wind from 175 at 6 knots gusting 10

Air temperature 19.9° C
Dewpoint 17.9° C

Last reported at 2020-Sep-29 04:00 UTC.
Time now 2020-Sep-29 04:46 UTC

Location: N 39°05' W 075°27'.
View on Google Maps.

See reports from other nearby stations

  
Tides and Currents Weather Stations Pressure Air Temp Water Temp Dewpoint Dewpoint Depression Visibility Wind Speed Wind Dir Waves Ship Positions
date/time (UTC)wind fromknots sea level pressurealtimeterstation pressurevisibilityair tempwater tempwave heightnotes
2020-Sep-29 04:00 175 6 gusting 10 19.9
2020-Sep-29 03:50 170 6 gusting 10 19.9
2020-Sep-29 03:45 175 6 gusting 9 19.9
2020-Sep-29 03:40 170 6 gusting 9 19.9
2020-Sep-29 03:35 180 5 gusting 8 19.9
2020-Sep-29 03:30 185 6 gusting 10 20.1
2020-Sep-29 03:25 170 6 gusting 10 20.1
2020-Sep-29 03:20 180 4 gusting 6 19.9
2020-Sep-29 03:15 185 4 gusting 9 20.1
2020-Sep-29 03:10 175 5 gusting 12 20.2
2020-Sep-29 03:05 180 6 gusting 12 20.4
2020-Sep-29 03:00 175 7 gusting 11 20.4
2020-Sep-29 02:55 170 7 gusting 10 20.4
2020-Sep-29 02:50 170 7 gusting 11 20.4
2020-Sep-29 02:45 170 7 gusting 11 20.4
2020-Sep-29 02:40 165 7 gusting 11 20.4
2020-Sep-29 02:35 175 7 gusting 11 20.4
2020-Sep-29 02:30 165 8 gusting 11 20.6
2020-Sep-29 02:25 165 6 gusting 12 20.6
2020-Sep-29 02:20 165 7 gusting 13 20.6
2020-Sep-29 02:15 170 7 gusting 13 20.6
2020-Sep-29 02:10 170 8 gusting 12 20.6
2020-Sep-29 02:05 170 7 gusting 12 20.6
2020-Sep-29 02:00 165 7 gusting 11 20.6
2020-Sep-29 01:55 155 7 gusting 11 20.8
2020-Sep-29 01:50 165 6 gusting 10 20.9
2020-Sep-29 01:45 175 7 gusting 9 20.9
2020-Sep-29 01:40 170 6 gusting 9 20.9
2020-Sep-29 01:35 160 6 gusting 10 20.9
2020-Sep-29 01:30 160 5 gusting 10 20.9
2020-Sep-29 01:25 160 6 gusting 10 21.1
2020-Sep-29 01:20 155 6 gusting 10 21.1
2020-Sep-29 01:15 140 6 gusting 11 21.1
2020-Sep-29 01:10 145 5 gusting 11 21.2
2020-Sep-29 01:05 145 6 gusting 13 21.4
2020-Sep-29 01:00 160 6 gusting 9 21.4
2020-Sep-29 00:55 155 5 gusting 9 21.6
2020-Sep-29 00:50 135 4 gusting 9 21.6
2020-Sep-29 00:45 160 5 gusting 9 21.9
2020-Sep-29 00:40 150 6 gusting 9 21.9
2020-Sep-29 00:35 160 6 gusting 10 21.9
2020-Sep-29 00:30 145 6 gusting 12 21.9
2020-Sep-29 00:25 150 6 gusting 12 22.1
2020-Sep-29 00:20 140 7 gusting 9 22.2
2020-Sep-29 00:15 145 5 gusting 11 22.2
2020-Sep-29 00:10 145 7 gusting 11 22.4
2020-Sep-29 00:05 140 6 gusting 9 22.6
2020-Sep-29 00:00 145 5 gusting 13 22.8
2020-Sep-28 23:55 155 7 gusting 13 22.9
2020-Sep-28 23:50 150 8 gusting 12 23.1
2020-Sep-28 23:45 155 6 gusting 10 23.1
2020-Sep-28 23:40 150 6 gusting 11 23.2
2020-Sep-28 23:35 150 6 gusting 9 23.2
2020-Sep-28 23:30 145 4 gusting 8 23.6
2020-Sep-28 23:25 150 5 gusting 8 23.6
2020-Sep-28 23:20 155 5 gusting 7 23.9
2020-Sep-28 23:15 140 4 gusting 8 24.1
2020-Sep-28 23:10 150 5 gusting 9 24.2
2020-Sep-28 23:05 160 6 gusting 9 24.4
2020-Sep-28 23:00 150 6 gusting 10 24.4
2020-Sep-28 22:55 150 6 gusting 10 24.6
2020-Sep-28 22:50 150 6 gusting 9 24.6
2020-Sep-28 22:45 145 5 gusting 9 24.9
2020-Sep-28 22:40 150 6 gusting 9 24.9
2020-Sep-28 22:35 150 4 gusting 7 25.4
2020-Sep-28 22:30 150 5 gusting 7 25.8
2020-Sep-28 22:25 155 5 gusting 8 26.1
2020-Sep-28 22:20 170 6 gusting 9 26.2
2020-Sep-28 22:15 175 6 gusting 10 26.2
2020-Sep-28 22:10 175 6 gusting 13 26.4
2020-Sep-28 22:05 175 6 gusting 13 26.9
2020-Sep-28 22:00 170 10 gusting 13 26.9
2020-Sep-28 21:55 180 9 gusting 13 26.9
2020-Sep-28 21:50 160 7 gusting 12 27.1
2020-Sep-28 21:45 145 7 gusting 12 27.1
2020-Sep-28 21:40 150 8 gusting 13 27.4
2020-Sep-28 21:35 155 7 gusting 13 27.4
2020-Sep-28 21:30 150 7 gusting 12 27.6
2020-Sep-28 21:25 145 10 gusting 12 27.6
2020-Sep-28 21:20 160 6 gusting 11 27.9
2020-Sep-28 21:15 145 7 gusting 11 28.1
2020-Sep-28 21:10 150 7 gusting 13 28.1
2020-Sep-28 21:05 165 9 gusting 13 28.1
2020-Sep-28 21:00 165 7 gusting 12 28.4
2020-Sep-28 20:55 170 9 gusting 12 28.1
2020-Sep-28 20:50 135 8 gusting 15 28.4
2020-Sep-28 20:45 145 10 gusting 15 28.4
2020-Sep-28 20:40 150 5 gusting 11 28.6
2020-Sep-28 20:35 170 6 gusting 11 28.6
2020-Sep-28 20:30 165 7 gusting 11 28.6
2020-Sep-28 20:25 150 7 gusting 13 28.4
2020-Sep-28 20:20 160 7 gusting 12 28.4
2020-Sep-28 20:15 155 7 gusting 12 28.4
2020-Sep-28 20:10 150 8 gusting 11 28.4
2020-Sep-28 20:05 170 7 gusting 11 28.6
2020-Sep-28 20:00 180 6 gusting 10 28.4
2020-Sep-28 19:55 185 6 gusting 9 28.6
2020-Sep-28 19:50 175 5 gusting 11 27.9
2020-Sep-28 19:45 200 7 gusting 12 27.8
2020-Sep-28 19:40 175 7 gusting 12 27.9
2020-Sep-28 19:35 185 8 gusting 12 28.4
2020-Sep-28 19:30 170 6 gusting 12 28.1
2020-Sep-28 19:25 150 7 gusting 12 28.4
2020-Sep-28 19:20 145 6 gusting 12 28.6
2020-Sep-28 19:15 175 7 gusting 12 28.2
2020-Sep-28 19:10 170 8 gusting 13 28.1
2020-Sep-28 19:05 145 9 gusting 13 27.9
2020-Sep-28 19:00 170 8 gusting 13 28.1
2020-Sep-28 18:55 175 9 gusting 13 28.1
2020-Sep-28 18:50 165 6 gusting 10 28.4
2020-Sep-28 18:45 200 8 gusting 15 27.4
2020-Sep-28 18:40 175 8 gusting 15 28.4
2020-Sep-28 18:35 175 7 gusting 12 28.6
2020-Sep-28 18:30 145 10 gusting 12 28.6
2020-Sep-28 18:25 170 4 gusting 12 28.1
2020-Sep-28 18:20 140 7 gusting 12 28.2
2020-Sep-28 18:15 150 5 gusting 11 28.9
2020-Sep-28 18:10 170 7 gusting 11 28.4
2020-Sep-28 18:05 180 7 gusting 12 28.1
2020-Sep-28 18:00 160 5 gusting 12 28.1
2020-Sep-28 17:55 170 5 gusting 11 27.9
2020-Sep-28 17:50 200 6 gusting 11 27.6
2020-Sep-28 17:45 190 6 gusting 14 28.1
2020-Sep-28 17:40 210 7 gusting 14 27.2
2020-Sep-28 17:35 210 9 gusting 12 27.6
2020-Sep-28 17:30 200 9 gusting 14 27.4
2020-Sep-28 17:25 185 9 gusting 15 27.1
2020-Sep-28 17:20 200 10 gusting 15 27.6
2020-Sep-28 17:15 180 9 gusting 14 27.2
2020-Sep-28 17:10 180 8 gusting 15 27.4
2020-Sep-28 17:05 200 9 gusting 15 26.9
2020-Sep-28 17:00 200 11 gusting 15 26.9
2020-Sep-28 16:55 200 10 gusting 15 27.1
2020-Sep-28 16:50 175 7 gusting 12 27.1
2020-Sep-28 16:45 180 9 gusting 12 27.1
2020-Sep-28 16:40 215 8 gusting 14 26.8
2020-Sep-28 16:35 205 11 gusting 14 26.4
2020-Sep-28 16:30 215 9 gusting 13 26.8
2020-Sep-28 16:25 205 9 gusting 14 26.8
2020-Sep-28 16:20 190 8 gusting 14 26.4
2020-Sep-28 16:15 190 9 gusting 14 26.4
2020-Sep-28 16:10 190 9 gusting 15 26.1
2020-Sep-28 16:05 200 11 gusting 15 25.9
2020-Sep-28 16:00 210 10 gusting 13 26.1
2020-Sep-28 15:55 185 8 gusting 12 26.4
2020-Sep-28 15:50 195 9 gusting 12 25.8
2020-Sep-28 15:45 180 7 gusting 12 25.6
2020-Sep-28 15:40 210 8 gusting 12 25.6
2020-Sep-28 15:35 185 6 gusting 14 25.8
2020-Sep-28 15:30 165 9 gusting 14 25.2
2020-Sep-28 15:25 200 8 gusting 11 25.1
2020-Sep-28 15:20 180 8 gusting 14 25.1
2020-Sep-28 15:15 190 7 gusting 14 24.6
2020-Sep-28 15:10 200 11 gusting 13 24.4
2020-Sep-28 15:05 185 8 gusting 13 24.4
2020-Sep-28 15:00 190 8 gusting 12 24.4
2020-Sep-28 14:55 200 9 gusting 11 24.2
2020-Sep-28 14:50 175 7 gusting 12 24.1
2020-Sep-28 14:45 200 9 gusting 12 23.9
2020-Sep-28 14:40 190 8 gusting 11 23.9
2020-Sep-28 14:35 180 6 gusting 12 23.4
2020-Sep-28 14:30 200 7 gusting 12 23.4
2020-Sep-28 14:25 205 7 gusting 11 22.8
2020-Sep-28 14:20 205 6 gusting 10 22.6
2020-Sep-28 14:15 195 6 gusting 10 22.6
2020-Sep-28 14:10 175 7 gusting 11 22.4
2020-Sep-28 14:05 180 8 gusting 11 22.8
2020-Sep-28 14:00 205 6 gusting 9 22.4
2020-Sep-28 13:55 180 6 gusting 9 21.8
2020-Sep-28 13:50 170 4 gusting 7 21.4
2020-Sep-28 13:45 180 5 gusting 8 20.9
2020-Sep-28 13:40 175 5 gusting 10 20.6
2020-Sep-28 13:35 195 6 gusting 11 20.6
2020-Sep-28 13:30 200 9 gusting 11 20.6
2020-Sep-28 13:25 200 7 gusting 9 20.8
2020-Sep-28 13:20 185 5 gusting 11 20.6
2020-Sep-28 13:15 180 8 gusting 13 20.6
2020-Sep-28 13:10 200 6 gusting 13 20.6
2020-Sep-28 13:05 180 7 gusting 12 20.6
2020-Sep-28 13:00 170 7 gusting 11 20.6
2020-Sep-28 12:55 170 6 gusting 8 20.6
2020-Sep-28 12:50 180 5 gusting 8 20.4
2020-Sep-28 12:45 175 4 gusting 8 20.4
2020-Sep-28 12:40 185 4 gusting 8 20.2
2020-Sep-28 12:35 160 4 gusting 9 20.1
2020-Sep-28 12:30 180 6 gusting 9 20.1
2020-Sep-28 12:25 185 5 gusting 8 20.1
2020-Sep-28 12:20 165 5 gusting 8 20.1
2020-Sep-28 12:15 160 5 gusting 7 20.1
2020-Sep-28 12:10 180 5 gusting 6 20.1
2020-Sep-28 12:05 155 4 gusting 7 20.1
2020-Sep-28 12:00 165 4 gusting 7 19.9
2020-Sep-28 11:55 155 4 gusting 7 19.9
2020-Sep-28 11:50 160 3 gusting 7 19.9
2020-Sep-28 11:45 170 4 gusting 7 19.8
2020-Sep-28 11:40 160 5 gusting 7 19.8
2020-Sep-28 11:35 170 5 gusting 6 19.6
2020-Sep-28 11:30 160 3 gusting 6 19.6
2020-Sep-28 11:25 145 4 gusting 6 19.6
2020-Sep-28 11:20 145 4 gusting 6 19.6
2020-Sep-28 11:15 140 3 gusting 6 19.4
2020-Sep-28 11:10 150 4 gusting 6 19.4
2020-Sep-28 11:05 145 3 gusting 6 19.4
2020-Sep-28 11:00 160 4 gusting 6 19.6
2020-Sep-28 10:55 155 4 gusting 6 19.6
2020-Sep-28 10:50 180 4 gusting 7 19.6
2020-Sep-28 10:45 155 4 gusting 7 19.6
2020-Sep-28 10:40 155 3 gusting 6 19.6
2020-Sep-28 10:35 150 2 gusting 6 19.6
2020-Sep-28 10:30 145 4 gusting 9 19.6
2020-Sep-28 10:25 140 4 gusting 9 19.6
2020-Sep-28 10:20 130 5 gusting 6 19.6
2020-Sep-28 10:15 135 4 gusting 5 19.6
2020-Sep-28 10:10 130 4 gusting 5 19.6
2020-Sep-28 10:05 135 3 gusting 6 19.6
2020-Sep-28 10:00 145 4 gusting 6 19.8
2020-Sep-28 09:55 165 4 gusting 6 19.8
2020-Sep-28 09:50 160 4 gusting 6 19.9
2020-Sep-28 09:45 155 3 gusting 5 19.9
2020-Sep-28 09:40 165 4 gusting 5 19.9
2020-Sep-28 09:35 170 4 gusting 6 19.9
2020-Sep-28 09:30 160 3 gusting 6 19.9
2020-Sep-28 09:25 165 3 gusting 6 19.9
2020-Sep-28 09:20 145 4 gusting 6 19.9
2020-Sep-28 09:15 165 4 gusting 6 20.1
2020-Sep-28 09:10 170 4 gusting 6 20.1
2020-Sep-28 09:05 170 3 gusting 6 19.9
2020-Sep-28 09:00 175 4 gusting 7 19.9
2020-Sep-28 08:55 175 4 gusting 7 19.9
2020-Sep-28 08:50 185 4 gusting 7 19.9
2020-Sep-28 08:45 180 5 gusting 7 20.1
2020-Sep-28 08:40 180 5 gusting 7 20.1
2020-Sep-28 08:35 175 5 gusting 7 20.1
2020-Sep-28 08:30 175 5 gusting 8 20.1
2020-Sep-28 08:25 175 6 gusting 8 20.1
2020-Sep-28 08:20 180 5 gusting 7 20.1
2020-Sep-28 08:15 170 4 gusting 7 20.2
2020-Sep-28 08:10 170 5 gusting 7 20.1
2020-Sep-28 08:05 170 4 gusting 6 20.1
2020-Sep-28 08:00 170 3 gusting 5 20.1
2020-Sep-28 07:55 170 4 gusting 5 20.1
2020-Sep-28 07:50 180 3 gusting 6 20.1
2020-Sep-28 07:45 190 3 gusting 7 20.1
2020-Sep-28 07:40 180 4 gusting 7 20.1
2020-Sep-28 07:35 175 5 gusting 7 20.1
2020-Sep-28 07:30 190 3 gusting 6 20.1
2020-Sep-28 07:25 180 4 gusting 7 20.1
2020-Sep-28 07:20 190 4 gusting 7 20.1
2020-Sep-28 07:15 195 4 gusting 8 20.2
2020-Sep-28 07:10 185 5 gusting 9 20.2
2020-Sep-28 07:05 185 6 gusting 10 20.2
2020-Sep-28 07:00 175 7 gusting 10 20.2
2020-Sep-28 06:55 180 6 gusting 11 20.2
2020-Sep-28 06:50 180 8 gusting 11 20.2
2020-Sep-28 06:45 175 6 gusting 10 20.2
2020-Sep-28 06:40 180 6 gusting 9 20.2
2020-Sep-28 06:35 175 6 gusting 9 20.1
2020-Sep-28 06:30 175 7 gusting 8 20.2
2020-Sep-28 06:25 175 6 gusting 8 20.1
2020-Sep-28 06:20 165 5 gusting 8 20.1
2020-Sep-28 06:15 180 5 gusting 7 20.1
2020-Sep-28 06:10 175 5 gusting 6 20.1
2020-Sep-28 06:05 165 4 gusting 6 20.1
2020-Sep-28 06:00 155 4 gusting 6 20.1
2020-Sep-28 05:55 165 4 gusting 6 20.1
2020-Sep-28 05:50 175 4 gusting 6 20.1
2020-Sep-28 05:45 180 4 gusting 6 20.1
2020-Sep-28 05:40 185 3 gusting 5 20.1
2020-Sep-28 05:35 170 3 gusting 6 20.4
2020-Sep-28 05:30 175 4 gusting 6 20.4
2020-Sep-28 05:25 165 4 gusting 6 20.4
2020-Sep-28 05:20 165 4 gusting 6 20.6
2020-Sep-28 05:15 165 3 gusting 6 20.6
2020-Sep-28 05:10 165 4 gusting 6 20.8
2020-Sep-28 05:05 145 3 gusting 6 20.9
2020-Sep-28 05:00 170 3 gusting 6 20.9
2020-Sep-28 04:55 180 4 gusting 6 20.9
2020-Sep-28 04:50 185 4 gusting 9 20.9
2020-Sep-28 04:45 175 3 gusting 9 20.9
2020-Sep-28 04:40 180 5 gusting 8 20.9
2020-Sep-28 04:35 185 4 gusting 10 20.9
2020-Sep-28 04:30 170 6 gusting 10 20.9
2020-Sep-28 04:25 185 6 gusting 10 20.9
2020-Sep-28 04:20 205 6 gusting 11 21.1
2020-Sep-28 04:15 200 7 gusting 11 21.1
2020-Sep-28 04:10 200 8 gusting 11 21.1
2020-Sep-28 04:05 190 6 gusting 11 21.1
2020-Sep-28 04:00 200 7 gusting 11 21.1
2020-Sep-28 03:55 180 6 gusting 9 21.1
2020-Sep-28 03:50 185 6 gusting 11 21.2
2020-Sep-28 03:45 180 7 gusting 11 21.2
2020-Sep-28 03:40 180 6 gusting 9 21.2
2020-Sep-28 03:35 170 6 gusting 10 21.2
2020-Sep-28 03:30 165 7 gusting 10 21.4
2020-Sep-28 03:25 160 7 gusting 10 21.2
2020-Sep-28 03:20 150 6 gusting 11 21.2
2020-Sep-28 03:15 150 6 gusting 11 21.2
2020-Sep-28 03:10 135 6 gusting 9 21.4
2020-Sep-28 03:05 140 5 gusting 9 21.4
2020-Sep-28 03:00 140 5 gusting 8 21.4
2020-Sep-28 02:55 140 5 gusting 7 21.4
2020-Sep-28 02:50 160 5 gusting 9 21.4
2020-Sep-28 02:45 145 5 gusting 9 21.4
2020-Sep-28 02:40 155 5 gusting 6 21.2
2020-Sep-28 02:35 145 4 gusting 7 21.4
2020-Sep-28 02:30 130 5 gusting 7 21.2
2020-Sep-28 02:25 145 4 gusting 6 21.2
2020-Sep-28 02:20 125 3 gusting 7 21.2
2020-Sep-28 02:15 145 5 gusting 7 21.2
2020-Sep-28 02:10 135 5 gusting 7 21.2
2020-Sep-28 02:05 145 5 gusting 7 21.4
2020-Sep-28 02:00 145 4 gusting 7 21.4
2020-Sep-28 01:55 130 6 gusting 7 21.4
2020-Sep-28 01:50 130 3 gusting 5 21.4
2020-Sep-28 01:45 125 3 gusting 5 21.4
2020-Sep-28 01:40 145 3 gusting 5 21.4
2020-Sep-28 01:35 160 3 gusting 5 21.4
2020-Sep-28 01:30 145 3 gusting 6 21.4
2020-Sep-28 01:25 155 4 gusting 6 21.4
2020-Sep-28 01:20 150 3 gusting 6 21.4
2020-Sep-28 01:15 145 3 gusting 6 21.4
2020-Sep-28 01:10 160 3 gusting 6 21.4
2020-Sep-28 01:05 175 5 gusting 6 21.4
2020-Sep-28 01:00 160 3 gusting 5 21.4
2020-Sep-28 00:55 165 4 gusting 5 21.2
2020-Sep-28 00:50 175 4 gusting 5 21.1
2020-Sep-28 00:45 160 3 gusting 6 21.4
2020-Sep-28 00:40 155 4 gusting 6 21.4
2020-Sep-28 00:35 155 4 gusting 5 21.6
2020-Sep-28 00:30 140 4 gusting 6 21.4
2020-Sep-28 00:25 120 4 gusting 6 21.4
2020-Sep-28 00:20 135 4 gusting 6 21.6
2020-Sep-28 00:15 150 5 gusting 6 21.6
2020-Sep-28 00:10 150 4 gusting 7 21.6
2020-Sep-28 00:05 145 5 gusting 7 21.6
2020-Sep-28 00:00 155 5 gusting 6 21.8
2020-Sep-27 23:55 150 4 gusting 5 21.9
2020-Sep-27 23:50 160 3 gusting 6 21.9
2020-Sep-27 23:45 145 4 gusting 6 21.8
2020-Sep-27 23:40 125 3 gusting 6 21.8
2020-Sep-27 23:35 110 3 gusting 6 21.8
2020-Sep-27 23:30 085 5 gusting 6 21.9
2020-Sep-27 23:25 100 4 gusting 5 21.9
2020-Sep-27 23:20 100 4 gusting 5 21.9
2020-Sep-27 23:15 090 5 gusting 5 21.9
2020-Sep-27 23:10 090 3 gusting 4 21.9
2020-Sep-27 23:05 115 3 gusting 4 22.1
2020-Sep-27 23:00 105 2 gusting 5 22.1
2020-Sep-27 22:55 135 3 gusting 5 22.1
2020-Sep-27 22:50 125 3 gusting 4 21.9
2020-Sep-27 22:45 095 3 gusting 4 21.9
2020-Sep-27 22:40 100 3 gusting 4 21.9
2020-Sep-27 22:35 080 2 gusting 4 22.1
2020-Sep-27 22:30 075 3 gusting 5 22.1
2020-Sep-27 22:25 080 3 gusting 5 22.1
2020-Sep-27 22:20 085 4 gusting 6 21.9
2020-Sep-27 22:15 090 4 gusting 6 22.1
2020-Sep-27 22:10 090 5 gusting 7 22.2
2020-Sep-27 22:05 110 5 gusting 7 22.6
2020-Sep-27 22:00 105 6 gusting 7 23.1
2020-Sep-27 21:55 100 2 gusting 4 23.6
2020-Sep-27 21:50 075 3 gusting 5 23.6
2020-Sep-27 21:45 080 2 gusting 6 23.6
2020-Sep-27 21:40 075 5 gusting 6 23.6
2020-Sep-27 21:35 075 5 gusting 6 24.1
2020-Sep-27 21:30 095 3 gusting 6 24.6
2020-Sep-27 21:25 140 3 gusting 5 24.6
2020-Sep-27 21:20 150 2 gusting 4 24.6
2020-Sep-27 21:15 160 3 gusting 4 24.8
2020-Sep-27 21:10 185 1 gusting 3 24.6
2020-Sep-27 21:05 195 1 gusting 4 24.6
2020-Sep-27 21:00 155 1 gusting 4 24.6
2020-Sep-27 20:55 110 2 gusting 5 24.4
2020-Sep-27 20:50 105 3 gusting 5 24.6
2020-Sep-27 20:45 135 2 gusting 4 24.2
2020-Sep-27 20:40 120 2 gusting 4 24.2
2020-Sep-27 20:35 090 3 gusting 5 24.4
2020-Sep-27 20:30 095 4 gusting 5 24.2
2020-Sep-27 20:25 095 3 gusting 5 24.1
2020-Sep-27 20:20 095 4 gusting 6 24.1
2020-Sep-27 20:15 095 4 gusting 6 24.2
2020-Sep-27 20:10 095 5 gusting 6 24.1
2020-Sep-27 20:05 100 5 gusting 6 24.2
2020-Sep-27 20:00 070 4 gusting 8 24.1
2020-Sep-27 19:55 080 6 gusting 8 24.2
2020-Sep-27 19:50 065 5 gusting 7 24.6
2020-Sep-27 19:45 045 4 gusting 8 24.6
2020-Sep-27 19:40 065 5 gusting 8 24.8
2020-Sep-27 19:35 065 5 gusting 6 24.9
2020-Sep-27 19:30 075 5 gusting 6 24.8
2020-Sep-27 19:25 065 5 gusting 7 24.8
2020-Sep-27 19:20 075 5 gusting 7 24.8
2020-Sep-27 19:15 070 4 gusting 7 24.8
2020-Sep-27 19:10 090 4 gusting 7 24.9
2020-Sep-27 19:05 050 3 gusting 6 25.1
2020-Sep-27 19:00 075 4 gusting 6 25.2
2020-Sep-27 18:55 080 3 gusting 5 25.1
2020-Sep-27 18:50 345 3 gusting 5 24.8
2020-Sep-27 18:45 345 2 gusting 6 25.1
2020-Sep-27 18:40 25.4
2020-Sep-27 18:35 040 3 gusting 5 24.9
2020-Sep-27 18:30 040 3 gusting 6 24.9
2020-Sep-27 18:25 050 4 gusting 6 24.6
2020-Sep-27 18:20 050 4 gusting 6 24.4
2020-Sep-27 18:15 070 3 gusting 7 24.2
2020-Sep-27 18:10 070 5 gusting 8 24.1
2020-Sep-27 18:05 085 6 gusting 8 23.9
2020-Sep-27 18:00 080 6 gusting 7 24.4
2020-Sep-27 17:55 030 3 gusting 5 24.8
2020-Sep-27 17:50 070 3 gusting 5 24.9
2020-Sep-27 17:45 035 3 gusting 5 24.8
2020-Sep-27 17:40 040 3 gusting 6 24.9
2020-Sep-27 17:35 015 2 gusting 6 24.6
2020-Sep-27 17:30 300 0 gusting 5 24.1
2020-Sep-27 17:25 350 3 gusting 5 24.2
2020-Sep-27 17:20 035 3 gusting 4 24.2
2020-Sep-27 17:15 035 3 gusting 4 24.2
2020-Sep-27 17:10 070 2 gusting 4 24.1
2020-Sep-27 17:05 280 1 gusting 4 23.6
2020-Sep-27 17:00 140 2 gusting 4 24.2
2020-Sep-27 16:55 075 2 gusting 5 23.6
2020-Sep-27 16:50 070 4 gusting 6 23.4
2020-Sep-27 16:45 075 3 gusting 7 23.1
2020-Sep-27 16:40 085 3 gusting 7 23.1
2020-Sep-27 16:35 095 5 gusting 8 23.2
2020-Sep-27 16:30 095 6 gusting 8 23.4
2020-Sep-27 16:25 065 6 gusting 8 23.4
2020-Sep-27 16:20 070 5 gusting 7 24.1
2020-Sep-27 16:15 065 4 gusting 9 23.9
2020-Sep-27 16:10 075 3 gusting 9 23.4
2020-Sep-27 16:05 070 4 gusting 7 23.2
2020-Sep-27 16:00 080 4 gusting 9 23.2
2020-Sep-27 15:55 080 5 gusting 9 23.6
2020-Sep-27 15:50 065 5 gusting 8 22.9
2020-Sep-27 15:45 075 5 gusting 8 22.9
2020-Sep-27 15:40 080 5 gusting 8 22.9
2020-Sep-27 15:35 065 5 gusting 8 23.1
2020-Sep-27 15:30 090 4 gusting 7 23.1
2020-Sep-27 15:25 085 5 gusting 8 22.9
2020-Sep-27 15:20 095 4 gusting 8 22.4
2020-Sep-27 15:15 060 6 gusting 9 22.1
2020-Sep-27 15:10 055 6 gusting 9 22.1
2020-Sep-27 15:05 075 6 gusting 10 22.2
2020-Sep-27 15:00 060 6 gusting 10 22.1
2020-Sep-27 14:55 060 6 gusting 9 22.1
2020-Sep-27 14:50 065 7 gusting 10 21.9
2020-Sep-27 14:45 070 7 gusting 10 21.9
2020-Sep-27 14:40 065 6 gusting 9 22.1
2020-Sep-27 14:35 050 5 gusting 9 21.8
2020-Sep-27 14:30 070 5 gusting 9 21.6
2020-Sep-27 14:25 075 6 gusting 9 21.2
2020-Sep-27 14:20 080 6 gusting 9 21.4
2020-Sep-27 14:15 050 6 gusting 9 21.4
2020-Sep-27 14:10 075 6 gusting 9 21.2
2020-Sep-27 14:05 085 6 gusting 9 21.1
2020-Sep-27 14:00 085 6 gusting 9 21.1
2020-Sep-27 13:55 070 7 gusting 9 20.9
2020-Sep-27 13:50 080 6 gusting 9 21.1
2020-Sep-27 13:45 070 6 gusting 8 21.2
2020-Sep-27 13:40 055 6 gusting 8 21.4
2020-Sep-27 13:35 075 5 gusting 9 21.4
2020-Sep-27 13:30 080 6 gusting 9 20.9
2020-Sep-27 13:25 070 5 gusting 8 21.1
2020-Sep-27 13:20 060 6 gusting 9 20.9
2020-Sep-27 13:15 065 5 gusting 9 20.8
2020-Sep-27 13:10 065 6 gusting 9 20.6
2020-Sep-27 13:05 065 5 gusting 7 20.6
2020-Sep-27 13:00 075 5 gusting 8 20.6
2020-Sep-27 12:55 065 5 gusting 9 20.4
2020-Sep-27 12:50 060 6 gusting 9 20.4
2020-Sep-27 12:45 065 6 gusting 8 20.4
2020-Sep-27 12:40 065 4 gusting 7 20.4
2020-Sep-27 12:35 065 4 gusting 6 20.6
2020-Sep-27 12:30 050 3 gusting 5 20.6
2020-Sep-27 12:25 045 3 gusting 5 20.4
2020-Sep-27 12:20 050 3 gusting 4 20.4
2020-Sep-27 12:15 060 3 gusting 5 20.4
2020-Sep-27 12:10 060 3 gusting 5 20.4
2020-Sep-27 12:05 050 3 gusting 5 20.2
2020-Sep-27 12:00 050 4 gusting 5 20.1
2020-Sep-27 11:55 040 3 gusting 5 20.2
2020-Sep-27 11:50 060 3 gusting 5 20.1
2020-Sep-27 11:45 050 3 gusting 4 20.1
2020-Sep-27 11:40 045 3 gusting 4 20.1
2020-Sep-27 11:35 025 3 gusting 5 20.1
2020-Sep-27 11:30 025 2 gusting 5 20.1
2020-Sep-27 11:25 025 2 gusting 4 20.1
2020-Sep-27 11:20 030 3 gusting 4 20.1
2020-Sep-27 11:15 035 3 gusting 4 20.1
2020-Sep-27 11:10 020 2 gusting 4 19.9
2020-Sep-27 11:05 030 3 gusting 4 19.9
2020-Sep-27 11:00 045 3 gusting 4 19.9
2020-Sep-27 10:55 015 3 gusting 4 19.9
2020-Sep-27 10:50 050 2 gusting 5 19.9
2020-Sep-27 10:45 045 4 gusting 5 19.9
2020-Sep-27 10:40 035 3 gusting 5 19.9
2020-Sep-27 10:35 030 4 gusting 6 19.9
2020-Sep-27 10:30 020 4 gusting 5 19.9
2020-Sep-27 10:25 015 3 gusting 4 19.9
2020-Sep-27 10:20 045 2 gusting 4 19.9
2020-Sep-27 10:15 045 3 gusting 4 19.9
2020-Sep-27 10:10 045 3 gusting 4 19.9
2020-Sep-27 10:05 050 2 gusting 4 19.9
2020-Sep-27 10:00 045 3 gusting 4 19.9
2020-Sep-27 09:55 045 3 gusting 3 19.9
2020-Sep-27 09:50 040 2 gusting 3 19.9
2020-Sep-27 09:45 040 2 gusting 4 19.9
2020-Sep-27 09:40 035 2 gusting 4 19.9
2020-Sep-27 09:35 040 2 gusting 4 19.9
2020-Sep-27 09:30 040 3 gusting 3 19.9
2020-Sep-27 09:25 045 2 gusting 3 19.9
2020-Sep-27 09:20 030 2 gusting 3 19.9
2020-Sep-27 09:15 035 2 gusting 3 19.9
2020-Sep-27 09:10 045 3 gusting 3 19.8
2020-Sep-27 09:05 060 3 gusting 5 19.8
2020-Sep-27 09:00 060 3 gusting 5 19.8
2020-Sep-27 08:55 060 3 gusting 5 19.9
2020-Sep-27 08:50 065 3 gusting 5 19.9
2020-Sep-27 08:45 075 2 gusting 3 19.9
2020-Sep-27 08:40 060 2 gusting 3 19.9
2020-Sep-27 08:35 075 2 gusting 3 19.9
2020-Sep-27 08:30 075 1 gusting 2 19.9
2020-Sep-27 08:25 065 1 gusting 3 19.9
2020-Sep-27 08:20 050 2 gusting 4 19.9
2020-Sep-27 08:15 060 3 gusting 4 19.9
2020-Sep-27 08:10 060 3 gusting 4 19.9
2020-Sep-27 08:05 055 2 gusting 6 19.9
2020-Sep-27 08:00 075 2 gusting 6 19.9
2020-Sep-27 07:55 075 3 gusting 6 19.9
2020-Sep-27 07:50 070 3 gusting 6 19.9
2020-Sep-27 07:45 085 4 gusting 6 19.9
2020-Sep-27 07:40 090 4 gusting 6 19.9
2020-Sep-27 07:35 085 3 gusting 4 19.9
2020-Sep-27 07:30 085 2 gusting 4 19.9
2020-Sep-27 07:25 080 2 gusting 6 19.9
2020-Sep-27 07:20 090 4 gusting 6 19.9
2020-Sep-27 07:15 085 4 gusting 5 19.9
2020-Sep-27 07:10 090 3 gusting 5 19.9
2020-Sep-27 07:05 080 2 gusting 4 19.9
2020-Sep-27 07:00 080 3 gusting 4 19.9
2020-Sep-27 06:55 070 2 gusting 4 19.9
2020-Sep-27 06:50 090 3 gusting 4 19.9
2020-Sep-27 06:45 065 2 gusting 3 19.9
2020-Sep-27 06:40 085 1 gusting 4 19.9
2020-Sep-27 06:35 095 3 gusting 5 19.9
2020-Sep-27 06:30 100 4 gusting 6 19.9
2020-Sep-27 06:25 100 5 gusting 6 19.9
2020-Sep-27 06:20 100 4 gusting 6 19.9
2020-Sep-27 06:15 095 5 gusting 6 19.9
2020-Sep-27 06:10 090 5 gusting 5 19.9
2020-Sep-27 06:05 085 3 gusting 4 19.9
2020-Sep-27 06:00 070 2 gusting 3 19.9
2020-Sep-27 05:55 080 2 gusting 3 19.9
2020-Sep-27 05:50 050 2 gusting 3 19.9
2020-Sep-27 05:45 040 1 gusting 2 19.9
2020-Sep-27 05:40 010 1 gusting 2 19.9
2020-Sep-27 05:35 355 0 gusting 1 19.9
2020-Sep-27 05:30 050 0 gusting 2 19.9
2020-Sep-27 05:25 080 1 gusting 2 19.9
2020-Sep-27 05:20 090 1 gusting 3 19.9
2020-Sep-27 05:15 105 2 gusting 3 19.9
2020-Sep-27 05:10 110 2 gusting 2 19.9
2020-Sep-27 05:05 120 1 gusting 2 19.9
2020-Sep-27 05:00 105 0 gusting 2 19.9
2020-Sep-27 04:55 140 1 gusting 2 19.9
2020-Sep-27 04:50 155 1 gusting 3 19.9
2020-Sep-27 04:45 115 1 gusting 4 19.9
2020-Sep-27 04:40 110 2 gusting 6 19.9
2020-Sep-27 04:35 110 2 gusting 6 19.9
2020-Sep-27 04:30 095 3 gusting 5 19.9
2020-Sep-27 04:25 090 4 gusting 6 19.9
2020-Sep-27 04:20 095 4 gusting 6 19.9
2020-Sep-27 04:15 085 5 gusting 5 19.9
2020-Sep-27 04:10 085 4 gusting 5 19.9
2020-Sep-27 04:05 080 2 gusting 5 19.9
2020-Sep-27 04:00 090 4 gusting 5 19.9